Location: Shenandoah County Park
(38.9356°N, 78.4524°W)
Time: 04:15:33
(UTC-04:00)

Transit 2A - Pass Details

Date: 13 June 2024
Orbit: 591 x 960 km, 66.7° (Epoch: 23 July)

Event Time Altitude Azimuth Distance (km) Brightness Sun altitude
Rises 03:28:54 0° 332° (NNW) 3,523 9.8 -20.3°
Reaches altitude 10° 03:31:22 10° 333° (NNW) 2,617 9.1 -20.0°
Maximum altitude 03:37:34 83° 62° (ENE) 963 6.5 -19.3°
Drops below altitude 10° 03:43:55 10° 150° (SSE) 2,684 8.6 -18.6°
Sets 03:46:28 0° 151° (SSE) 3,617 9.2 -18.3°
